[Date Prev][Date Next][Thread Prev][Thread Next] - [Date Index][Thread Index][Author Index]

2 Line ISS Keps 4-12



ISS
1 25544U 98067A   04103.16932870  .00018727  00000-0  16879-3 0  5517
2 25544  51.6287 302.2028 0010814  23.1890 122.9674 15.68160401307952

----
Via the sarex mailing list at AMSAT.ORG courtesy of AMSAT-NA.
To unsubscribe, send "unsubscribe sarex" to Majordomo@amsat.org



AMSAT Top AMSAT Home